Regional Weather Roundup
Issued by NWS Charleston, WV

Home | Current Version | Previous Version | Graphics & Text | Print | Product List | Glossary On
Versions: 1 2 3 4 5 6 7 8 9 10 11 12 13 14 15 16 17 18 19 20 21 22 23 24 25 26 27 28 29 30 31 32 33 34 35 36 37 38 39 40 41 42 43 44 45 46 47 48 49 50
000
ASUS41 KRLX 050410
RWRRLX
West Virginia Regional Weather Roundup
National Weather Service Charleston WV
1200 AM EDT SUN JUL 05 2015

Note: "fair" indicates few or no clouds below 12,000 feet with no
significant weather and/or obstructions to visibility.

WVZ003-050500-
Northern Panhandle of West Virginia

CITY           SKY/WX    TMP DP  RH WIND       PRES   REMARKS
WHEELING       PTCLDY    66  59  78 N6        30.07R
$$

WVZ009-050500-
Northwest West Virginia

CITY           SKY/WX    TMP DP  RH WIND       PRES   REMARKS
PARKERSBURG    PTCLDY    64  61  90 CALM      30.09R FOG
$$

WVZ006-050500-
Western West Virginia

CITY           SKY/WX    TMP DP  RH WIND       PRES   REMARKS
HUNTINGTON     MOCLDY    68  67  96 E3        30.06R FOG
$$

WVZ015-050500-
West Central West Virginia

CITY           SKY/WX    TMP DP  RH WIND       PRES   REMARKS
CHARLESTON     MOCLDY    68  66  93 CALM      30.07R
$$

WVZ022-031-050500-
North Central West Virginia

CITY           SKY/WX    TMP DP  RH WIND       PRES   REMARKS
CLARKSBURG     PTCLDY    63  62  97 CALM      30.08R FOG
MORGANTOWN     PTCLDY    66  60  81 S3        30.09R HAZE
$$

WVZ025-035-042-045-050500-
Southern West Virginia

CITY           SKY/WX    TMP DP  RH WIND       PRES   REMARKS
BECKLEY        CLOUDY    64  62  93 CALM      30.14S FOG
LOGAN          FOG       68  68 100 CALM      30.06F VSB 1/2
BLUEFIELD      CLOUDY    67  62  84 CALM      30.16S
LEWISBURG      MOCLDY    64  62  91 CALM      30.14S FOG
$$

WVZ047-050500-
Northern Mountains of West Virginia

CITY           SKY/WX    TMP DP  RH WIND       PRES   REMARKS
ELKINS         PTCLDY    62  59  90 CALM      30.13R FOG
$$

WVZ052-050500-
Eastern Panhandle of West Virginia

CITY           SKY/WX    TMP DP  RH WIND       PRES   REMARKS
MARTINSBURG    MOCLDY    68  65  90 CALM      30.07R FOG
PETERSBURG     PTCLDY    65  62  90 CALM      30.09R FOG
$$


USA.gov is the U.S. government's official web portal to all federal, state and local government web resources and services.